QPF
0.00 0.01 0.00 0.00 0.00 0.00 0.00 0.00 0.00 0.00 0.00 0.00 0.00 0.00 0.00 0.00 0.00 0.00 0.00 0.00 0.00 0.00 0.00 0.00 0.00 0.00 0.00 0.00 0.00 0.00 0.00 0.00 0.00 0.00 0.00 0.00 0.00 0.00 0.00 0.00 0.00 0.00 0.00
0.00 0.00 0.00 0.00 0.00 0.00 0.00 0.00 0.00 0.00 0.00 0.00 0.00 0.00 0.00 0.00 0.00 0.00 0.00 0.00 0.00 0.00 0.00 0.00 0.00 0.00 0.00 0.00 0.00 0.00 0.00 0.00 0.00 0.00 0.00 0.00 0.00 0.00 0.00 0.00 0.00 0.00 0.00
0.01 0.00 0.00 0.00 0.00 0.00 0.00 0.00 0.00 0.00 0.00 0.00 0.00 0.00 0.00 0.00 0.00 0.00 0.00 0.00 0.00 0.00 0.00 0.00 0.00 0.00 0.00 0.00 0.00 0.00 0.00 0.00 0.00 0.00 0.00 0.00 0.00 0.00 0.00 0.00 0.00 0.00 0.00
0.01 0.00 0.00 0.00 0.00 0.00 0.00 0.00 0.00 0.00 0.00 0.00 0.00 0.00 0.00 0.00 0.00 0.00 0.00 0.00 0.00 0.00 0.00 0.00 0.00 0.00 0.00 0.00 0.00 0.00 0.00 0.00 0.00 0.00 0.00 0.00 0.00 0.00 0.00 0.00 0.00 0.00 0.00
0.01 0.00 0.00 0.03 0.02 0.00 0.00 0.00 0.00 0.00 0.00 0.00 0.00 0.00 0.00 0.00 0.00 0.00 0.00 0.00 0.00 0.00 0.00 0.00 0.00 0.00 0.00 0.00 0.00 0.00 0.00 0.00 0.00 0.00 0.00 0.00 0.00 0.00 0.00 0.00 0.00 0.00 0.00
0.01 0.00 0.04 0.06 0.01 0.00 0.00 0.00 0.00 0.00 0.00 0.00 0.00 0.00 0.00 0.00 0.00 0.00 0.00 0.00 0.00 0.00 0.00 0.00 0.00 0.00 0.00 0.00 0.00 0.00 0.00 0.00 0.00 0.00 0.00 0.00 0.00 0.00 0.00 0.00 0.00 0.00 0.00
0.01 0.01 0.03 0.08 0.02 0.00 0.00 0.00 0.00 0.00 0.00 0.00 0.00 0.00 0.00 0.00 0.00 0.00 0.00 0.00 0.00 0.00 0.00 0.00 0.00 0.00 0.00 0.00 0.00 0.00 0.00 0.00 0.00 0.00 0.00 0.00 0.00 0.00 0.00 0.00 0.00 0.00 0.00
0.00 0.01 0.00 0.02 0.01 0.00 0.00 0.00 0.00 0.00 0.00 0.00 0.00 0.00 0.00 0.00 0.00 0.00 0.00 0.00 0.00 0.00 0.00 0.00 0.00 0.00 0.00 0.00 0.00 0.00 0.00 0.00 0.00 0.00 0.00 0.00 0.00 0.00 0.00 0.00 0.00 0.00 0.00
0.00 0.00 0.00 0.00 0.00 0.00 0.00 0.00 0.00 0.00 0.00 0.00 0.00 0.00 0.00 0.00 0.00 0.00 0.00 0.00 0.00 0.00 0.00 0.00 0.00 0.00 0.00 0.00 0.00 0.00 0.00 0.00 0.00 0.00 0.00 0.00 0.00 0.00 0.00 0.00 0.00 0.00 0.00
0.00 0.00 0.00 0.00 0.00 0.00 0.00 0.00 0.00 0.00 0.00 0.00 0.00 0.00 0.00 0.00 0.00 0.00 0.00 0.00 0.00 0.00 0.00 0.00 0.00 0.00 0.00 0.00 0.00 0.00 0.00 0.00 0.00 0.00 0.00 0.00 0.00 0.00 0.00 0.00 0.00 0.00 0.00
0.00 0.00 0.00 0.00 0.00 0.00 0.00 0.00 0.00 0.00 0.00 0.00 0.00 0.00 0.00 0.00 0.00 0.00 0.00 0.00 0.00 0.00 0.00 0.00 0.00 0.00 0.00 0.00 0.00 0.00 0.00 0.00 0.00 0.00 0.00 0.00 0.00 0.00 0.00 0.00 0.00 0.00 0.00
0.00 0.00 0.00 0.00 0.00 0.00 0.00 0.00 0.00 0.00 0.00 0.00 0.00 0.00 0.00 0.00 0.00 0.00 0.00 0.00 0.00 0.00 0.00 0.00 0.00 0.00 0.00 0.00 0.00 0.00 0.00 0.00 0.00 0.00 0.00 0.00 0.00 0.00 0.00 0.00 0.00 0.00 0.00
0.00 0.00 0.00 0.00 0.00 0.00 0.00 0.00 0.00 0.00 0.00 0.00 0.00 0.00 0.00 0.00 0.00 0.00 0.00 0.00 0.00 0.00 0.00 0.00 0.00 0.00 0.00 0.00 0.00 0.00 0.00 0.00 0.00 0.00 0.00 0.00 0.00 0.00 0.00 0.00 0.00 0.00 0.00
0.00 0.00 0.00 0.00 0.00 0.00 0.00 0.00 0.00 0.00 0.00 0.00 0.00 0.00 0.00 0.00 0.00 0.00 0.00 0.00 0.00 0.00 0.00 0.00 0.00 0.00 0.00 0.00 0.00 0.00 0.00 0.00 0.00 0.00 0.00 0.00 0.00 0.00 0.00 0.00 0.00 0.00 0.00
0.00 0.00 0.00 0.00 0.00 0.00 0.00 0.00 0.00 0.00 0.00 0.00 0.00 0.00 0.00 0.00 0.00 0.00 0.00 0.00 0.00 0.00 0.00 0.00 0.00 0.00 0.00 0.00 0.00 0.00 0.00 0.00 0.00 0.00 0.00 0.00 0.00 0.00 0.01 0.01 0.01 0.01 0.01
0.00 0.00 0.00 0.00 0.00 0.00 0.00 0.00 0.00 0.00 0.00 0.00 0.00 0.00 0.00 0.00 0.00 0.00 0.00 0.00 0.00 0.00 0.00 0.00 0.00 0.00 0.00 0.00 0.00 0.00 0.00 0.00 0.00 0.00 0.00 0.00 0.00 0.00 0.00 0.01 0.00 0.00 0.00
0.00 0.00 0.00 0.00 0.00 0.00 0.00 0.00 0.00 0.00 0.00 0.00 0.00 0.00 0.00 0.00 0.00 0.00 0.00 0.00 0.00 0.00 0.00 0.00 0.00 0.00 0.00 0.00 0.00 0.00 0.00 0.00 0.00 0.00 0.00 0.00 0.00 0.00 0.00 0.00 0.00 0.00 0.00
0.00 0.00 0.00 0.00 0.00 0.00 0.00 0.00 0.00 0.00 0.00 0.00 0.00 0.00 0.00 0.00 0.00 0.00 0.00 0.00 0.00 0.00 0.00 0.00 0.00 0.00 0.00 0.00 0.00 0.00 0.00 0.00 0.00 0.00 0.00 0.00 0.00 0.00 0.00 0.00 0.00 0.00 0.00
0.03 0.01 0.00 0.00 0.00 0.00 0.00 0.00 0.00 0.00 0.00 0.00 0.00 0.00 0.00 0.00 0.00 0.00 0.00 0.00 0.00 0.00 0.00 0.00 0.00 0.00 0.00 0.00 0.00 0.00 0.00 0.00 0.00 0.00 0.00 0.00 0.00 0.00 0.00 0.00 0.00 0.00 0.00
0.06 0.05 0.04 0.01 0.00 0.00 0.00 0.00 0.00 0.00 0.00 0.00 0.00 0.00 0.00 0.00 0.00 0.00 0.00 0.00 0.00 0.00 0.00 0.00 0.00 0.00 0.00 0.00 0.00 0.00 0.00 0.00 0.00 0.00 0.00 0.00 0.00 0.00 0.00 0.00 0.00 0.00 0.00
0.00 0.00 0.02 0.01 0.00 0.00 0.00 0.00 0.00 0.00 0.00 0.00 0.00 0.00 0.00 0.00 0.00 0.00 0.00 0.00 0.00 0.00 0.00 0.00 0.00 0.00 0.00 0.00 0.00 0.00 0.00 0.00 0.00 0.00 0.00 0.00 0.00 0.00 0.00 0.00 0.00 0.00 0.00
0.00 0.00 0.00 0.00 0.00 0.00 0.00 0.00 0.00 0.00 0.00 0.00 0.00 0.00 0.00 0.00 0.00 0.00 0.00 0.00 0.00 0.00 0.00 0.00 0.00 0.00 0.00 0.00 0.00 0.00 0.00 0.00 0.00 0.00 0.00 0.00 0.00 0.00 0.00 0.00 0.00 0.00 0.00
0.00 0.00 0.00 0.00 0.00 0.00 0.00 0.00 0.00 0.00 0.00 0.00 0.00 0.00 0.00 0.00 0.00 0.00 0.00 0.00 0.00 0.00 0.00 0.00 0.00 0.00 0.00 0.00 0.00 0.00 0.00 0.00 0.00 0.00 0.00 0.00 0.00 0.00 0.00 0.00 0.00 0.00 0.00
0.00 0.00 0.00 0.00 0.00 0.00 0.00 0.00 0.00 0.00 0.00 0.00 0.00 0.00 0.00 0.00 0.00 0.00 0.00 0.00 0.00 0.00 0.00 0.00 0.00 0.00 0.00 0.00 0.00 0.00 0.00 0.00 0.00 0.00 0.00 0.00 0.00 0.00 0.00 0.00 0.00 0.00 0.00
0.00 0.00 0.00 0.00 0.00 0.00 0.00 0.00 0.00 0.00 0.00 0.00 0.00 0.00 0.00 0.00 0.00 0.00 0.00 0.00 0.00 0.00 0.00 0.00 0.00 0.00 0.00 0.00 0.00 0.00 0.00 0.00 0.00 0.00 0.00 0.00 0.00 0.00 0.00 0.00 0.00 0.00 0.00
0.00 0.00 0.00 0.00 0.00 0.00 0.00 0.00 0.00 0.00 0.00 0.00 0.00 0.00 0.00 0.00 0.00 0.00 0.00 0.00 0.00 0.00 0.00 0.00 0.00 0.00 0.00 0.00 0.00 0.00 0.00 0.00 0.00 0.00 0.00 0.00 0.00 0.00 0.00 0.00 0.00 0.00 0.00
MSLP
1016.69 1016.92 1017.38 1017.68 1017.81 1017.72 1017.63 1017.53 1017.48 1017.58 1017.69 1017.72 1017.80 1017.82 1017.82 1017.83 1017.88 1017.92 1018.00 1018.02 1017.88 1017.79 1017.79 1017.83 1017.98 1018.13 1018.29 1018.38 1018.44 1018.52 1018.58 1018.65 1018.70 1018.71 1018.68 1018.70 1018.77 1018.85 1018.91 1018.96 1018.83 1018.23 1018.73
1016.54 1017.12 1017.64 1017.97 1018.07 1018.05 1017.92 1017.81 1017.75 1017.91 1018.03 1018.06 1018.13 1018.18 1018.24 1018.27 1018.29 1018.33 1018.33 1018.31 1018.32 1018.22 1018.12 1018.11 1018.14 1018.26 1018.46 1018.59 1018.67 1018.69 1018.74 1018.80 1018.80 1018.77 1018.76 1018.72 1018.85 1018.96 1019.02 1019.02 1018.95 1018.72 1018.90
1017.05 1017.44 1017.71 1018.11 1018.16 1018.34 1018.16 1018.15 1018.14 1018.30 1018.41 1018.54 1018.55 1018.62 1018.69 1018.72 1018.74 1018.74 1018.72 1018.65 1018.61 1018.61 1018.66 1018.77 1018.85 1018.83 1018.88 1018.95 1019.00 1019.07 1019.18 1019.23 1019.19 1019.12 1019.06 1018.48 1018.53 1018.94 1019.01 1019.10 1019.15 1019.14 1019.12
1017.20 1017.65 1017.93 1018.35 1018.36 1018.53 1018.44 1018.53 1018.47 1018.65 1018.86 1018.95 1019.05 1019.05 1019.09 1019.14 1019.20 1019.17 1019.12 1019.05 1018.96 1018.93 1018.95 1019.00 1019.10 1019.29 1019.47 1019.59 1019.59 1019.56 1019.54 1019.50 1019.41 1019.28 1018.77 1018.75 1018.68 1019.03 1019.11 1019.18 1019.22 1019.22 1019.24
1017.30 1017.79 1018.18 1018.49 1018.57 1018.75 1018.76 1018.86 1018.87 1018.91 1019.15 1019.27 1019.33 1019.35 1019.35 1019.39 1019.44 1019.53 1019.54 1019.51 1019.43 1019.37 1019.32 1019.32 1019.43 1019.54 1019.55 1019.57 1019.61 1019.66 1019.67 1019.61 1019.53 1019.24 1018.75 1018.88 1018.81 1018.76 1019.09 1019.17 1019.16 1019.15 1019.14
1017.76 1018.04 1018.49 1018.64 1018.93 1019.02 1019.09 1019.08 1019.14 1019.32 1019.47 1019.54 1019.57 1019.55 1019.55 1019.59 1019.61 1019.68 1019.77 1019.80 1019.82 1019.88 1019.89 1019.91 1019.96 1020.00 1020.02 1020.01 1019.95 1019.87 1019.78 1019.70 1019.51 1018.90 1018.93 1018.99 1018.87 1019.00 1018.95 1018.95 1018.99 1019.00 1018.98
1018.17 1018.36 1018.54 1018.87 1019.11 1019.26 1019.42 1019.46 1019.47 1019.53 1019.74 1019.85 1019.90 1019.94 1019.85 1019.82 1019.85 1019.88 1019.99 1020.03 1020.03 1020.05 1020.09 1020.14 1020.22 1020.31 1020.34 1020.33 1020.28 1020.20 1020.08 1019.95 1019.47 1019.16 1018.94 1018.89 1018.91 1018.96 1018.70 1018.63 1018.74 1018.83 1018.87
1018.59 1018.69 1018.85 1019.18 1019.40 1019.62 1019.73 1019.84 1019.85 1019.84 1019.93 1019.98 1020.12 1020.14 1020.13 1020.04 1020.09 1020.05 1020.03 1020.14 1020.26 1020.30 1020.29 1020.32 1020.32 1020.29 1020.28 1020.25 1020.21 1020.13 1020.04 1019.94 1019.39 1019.07 1018.94 1018.75 1018.97 1019.00 1018.68 1018.43 1018.35 1018.44 1018.53
1019.18 1019.27 1019.40 1019.37 1019.71 1019.92 1020.14 1020.21 1020.19 1020.28 1020.24 1020.19 1020.28 1020.25 1020.33 1020.29 1020.22 1020.22 1020.19 1020.19 1020.25 1020.31 1020.36 1020.36 1020.33 1020.32 1020.31 1020.25 1020.19 1020.12 1020.04 1019.94 1019.49 1019.16 1019.02 1018.68 1018.99 1018.86 1018.55 1018.36 1018.32 1018.24 1018.20
1019.47 1019.54 1019.74 1019.86 1019.94 1019.85 1020.09 1020.57 1020.61 1020.74 1020.72 1020.64 1020.67 1020.55 1020.48 1020.44 1020.40 1020.42 1020.33 1020.31 1020.30 1020.30 1020.33 1020.35 1020.33 1020.27 1020.20 1020.10 1019.98 1019.88 1019.84 1019.73 1019.17 1019.06 1018.86 1018.79 1019.10 1018.76 1018.42 1018.21 1018.10 1018.04 1017.97
1019.47 1019.83 1019.95 1020.08 1020.13 1020.20 1020.34 1020.79 1020.96 1021.00 1021.05 1020.92 1020.86 1020.93 1020.58 1020.63 1020.52 1020.41 1020.72 1020.57 1020.48 1020.41 1020.33 1020.24 1020.14 1020.04 1019.89 1019.71 1019.69 1019.68 1019.58 1019.03 1018.95 1018.84 1018.83 1019.35 1019.12 1018.65 1018.31 1018.12 1017.93 1017.73 1017.58
1019.51 1020.06 1020.26 1020.22 1020.27 1020.57 1020.82 1021.02 1021.29 1021.22 1021.30 1021.37 1021.23 1021.06 1020.78 1020.93 1020.91 1020.82 1020.93 1020.87 1020.72 1020.57 1020.41 1020.27 1020.12 1019.87 1019.51 1019.19 1019.02 1019.16 1018.91 1019.02 1018.79 1018.94 1019.15 1019.34 1018.89 1018.51 1018.26 1018.05 1017.88 1017.74 1017.45
1020.26 1020.53 1020.82 1020.62 1020.69 1020.89 1021.10 1021.42 1021.66 1021.61 1021.53 1021.78 1021.63 1021.47 1021.36 1021.16 1021.12 1020.88 1020.85 1020.74 1020.79 1020.85 1020.26 1020.07 1019.78 1019.54 1019.56 1019.37 1019.15 1019.14 1019.10 1018.85 1018.82 1019.24 1020.42 1019.79 1019.17 1018.74 1018.54 1018.36 1018.15 1018.07 1017.83
1020.57 1020.98 1021.16 1021.10 1021.24 1021.36 1021.59 1021.77 1021.86 1022.06 1022.24 1022.03 1022.11 1021.87 1021.72 1021.46 1021.52 1021.56 1021.85 1021.78 1021.53 1021.42 1021.09 1020.88 1020.57 1020.35 1020.08 1020.00 1019.84 1019.65 1019.45 1019.61 1019.75 1020.13 1020.94 1020.50 1020.06 1019.53 1019.08 1018.74 1018.66 1018.57 1018.46
1021.16 1021.38 1021.63 1021.64 1021.90 1021.70 1021.90 1022.30 1022.41 1022.69 1022.76 1022.83 1022.71 1022.58 1022.36 1022.22 1022.30 1022.19 1022.12 1022.18 1022.07 1021.99 1021.54 1021.13 1020.97 1020.77 1020.51 1020.46 1020.11 1019.76 1020.06 1020.40 1020.51 1020.71 1021.21 1021.19 1020.69 1020.16 1019.80 1019.83 1019.69 1019.26 1019.15
1021.74 1021.78 1022.01 1022.20 1022.50 1022.36 1022.65 1022.89 1023.11 1023.25 1023.43 1023.49 1023.36 1023.19 1022.86 1022.67 1022.53 1022.65 1022.67 1022.51 1022.13 1022.12 1021.84 1021.33 1021.11 1020.90 1020.74 1020.49 1020.21 1020.64 1020.90 1020.91 1021.03 1021.22 1021.48 1021.48 1021.40 1021.12 1020.98 1020.76 1020.60 1020.06 1019.67
1022.14 1022.11 1022.44 1022.71 1022.83 1023.04 1023.16 1023.31 1023.61 1023.58 1023.49 1023.68 1023.87 1023.95 1023.53 1023.27 1023.19 1022.93 1022.95 1022.87 1022.80 1022.63 1022.31 1021.92 1021.65 1021.48 1021.02 1020.72 1020.91 1021.52 1021.65 1021.77 1021.80 1022.07 1021.98 1021.97 1021.91 1021.67 1021.75 1021.39 1021.46 1021.10 1020.62
1022.62 1022.61 1022.84 1022.99 1023.15 1023.63 1023.64 1023.68 1023.87 1024.12 1023.97 1024.24 1024.40 1024.31 1024.18 1023.96 1023.82 1023.57 1023.51 1023.57 1023.51 1022.95 1022.57 1022.43 1022.28 1021.82 1021.60 1021.41 1021.85 1022.08 1022.28 1022.42 1022.45 1022.41 1022.40 1022.16 1022.09 1021.90 1022.01 1022.21 1022.05 1021.70 1021.38
1022.93 1022.96 1023.29 1023.56 1024.01 1023.86 1024.28 1024.35 1024.42 1024.83 1024.65 1024.75 1024.74 1024.60 1024.61 1024.59 1024.54 1024.18 1024.10 1024.30 1024.06 1023.36 1023.27 1023.03 1022.99 1022.74 1022.29 1022.08 1022.50 1022.74 1022.66 1022.55 1022.68 1022.80 1022.89 1022.72 1022.82 1022.65 1022.30 1022.39 1022.22 1022.22 1021.95
1023.07 1023.39 1023.73 1024.25 1023.92 1024.53 1024.78 1024.96 1024.85 1024.98 1025.18 1025.10 1025.09 1025.27 1025.27 1025.20 1025.21 1024.80 1024.71 1024.82 1024.46 1024.13 1023.97 1023.77 1023.54 1023.35 1023.23 1022.82 1022.75 1023.07 1023.06 1023.24 1023.28 1023.38 1023.33 1023.25 1023.31 1023.18 1022.98 1022.74 1022.19 1022.04 1022.33
1023.24 1023.80 1023.96 1023.61 1024.41 1024.82 1025.04 1024.95 1025.07 1025.15 1025.62 1025.63 1025.94 1026.04 1025.94 1025.81 1025.80 1025.62 1025.36 1025.33 1025.19 1025.03 1024.96 1024.67 1024.16 1024.01 1023.76 1023.76 1023.20 1023.10 1023.37 1023.62 1023.69 1023.66 1023.56 1023.57 1023.57 1023.39 1023.37 1023.04 1022.71 1022.37 1022.16
1023.13 1023.57 1023.85 1024.03 1024.80 1024.94 1024.80 1024.94 1025.12 1025.44 1026.09 1026.48 1026.53 1026.56 1026.56 1026.42 1026.44 1026.10 1026.12 1026.11 1026.00 1025.70 1025.74 1025.39 1024.90 1024.56 1024.69 1024.44 1023.74 1023.34 1023.06 1023.36 1023.50 1023.77 1023.79 1023.69 1023.98 1023.63 1023.45 1023.33 1023.14 1022.90 1022.65
1022.86 1023.31 1023.90 1024.20 1024.64 1024.93 1024.73 1025.17 1025.64 1025.91 1026.53 1026.71 1026.92 1027.02 1026.99 1027.01 1027.11 1026.74 1026.84 1026.83 1026.80 1026.45 1026.57 1026.15 1025.87 1025.49 1025.20 1025.22 1024.95 1024.46 1023.85 1023.95 1023.93 1023.60 1023.78 1023.97 1024.20 1023.94 1023.84 1023.52 1023.37 1023.22 1023.03
1022.75 1023.07 1023.68 1024.14 1024.62 1024.87 1025.03 1025.09 1025.26 1025.66 1026.31 1027.30 1027.29 1027.65 1027.54 1027.53 1027.67 1027.52 1027.48 1027.61 1027.71 1027.40 1027.28 1026.98 1026.79 1026.50 1025.97 1025.74 1025.85 1025.97 1025.99 1025.99 1025.24 1023.98 1023.69 1024.26 1024.18 1024.02 1024.02 1023.68 1023.46 1023.27 1023.11
1022.75 1023.14 1023.70 1024.25 1024.62 1025.10 1025.37 1025.03 1025.11 1025.98 1026.55 1027.33 1027.69 1027.94 1028.08 1028.08 1028.12 1028.31 1028.12 1028.34 1028.48 1028.12 1027.86 1027.80 1027.53 1027.41 1027.33 1026.83 1026.72 1026.73 1026.70 1026.71 1026.71 1026.02 1024.44 1024.06 1023.95 1024.04 1024.02 1023.81 1023.74 1023.37 1023.17
1022.79 1023.18 1023.81 1024.04 1024.48 1025.10 1025.54 1025.44 1025.52 1025.98 1026.61 1027.33 1027.88 1028.15 1028.41 1028.52 1028.53 1028.69 1028.83 1028.90 1028.95 1028.75 1028.36 1028.43 1028.41 1028.37 1028.06 1027.65 1027.52 1027.56 1027.47 1027.24 1027.12 1026.77 1026.02 1025.35 1024.84 1024.06 1024.10 1023.80 1023.69 1023.54 1023.28
Thickness
5718 5716 5714 5713 5712 5714 5715 5715 5714 5713 5712 5712 5711 5711 5711 5711 5711 5711 5711 5711 5712 5712 5712 5712 5711 5711 5710 5711 5712 5712 5712 5712 5711 5711 5710 5710 5709 5708 5707 5706 5707 5710 5706
5717 5713 5712 5711 5710 5710 5712 5712 5712 5711 5710 5710 5710 5710 5709 5709 5709 5708 5708 5710 5710 5711 5712 5712 5711 5711 5711 5711 5711 5711 5711 5710 5710 5710 5710 5710 5708 5707 5707 5706 5706 5706 5704
5713 5709 5709 5708 5708 5707 5709 5709 5709 5707 5707 5706 5707 5707 5706 5706 5706 5706 5707 5708 5709 5709 5710 5710 5709 5709 5709 5709 5709 5709 5708 5708 5708 5708 5709 5711 5710 5707 5706 5705 5704 5703 5702
5711 5707 5706 5705 5707 5705 5706 5705 5706 5703 5703 5703 5703 5704 5704 5704 5704 5704 5705 5706 5707 5708 5708 5708 5708 5707 5706 5706 5707 5707 5706 5706 5707 5708 5710 5710 5709 5706 5705 5704 5702 5701 5701
5710 5707 5705 5704 5704 5703 5704 5702 5702 5702 5701 5701 5702 5703 5703 5703 5703 5702 5702 5703 5704 5705 5706 5707 5706 5705 5706 5706 5706 5706 5706 5707 5707 5708 5710 5709 5708 5708 5704 5702 5701 5701 5701
5707 5706 5704 5703 5700 5701 5700 5701 5700 5699 5700 5699 5700 5702 5702 5702 5702 5702 5702 5702 5702 5702 5703 5704 5704 5703 5703 5704 5704 5705 5705 5705 5706 5709 5708 5707 5707 5707 5706 5704 5703 5702 5701
5703 5703 5702 5700 5698 5698 5697 5697 5698 5699 5697 5697 5696 5697 5699 5700 5699 5700 5700 5700 5700 5701 5701 5701 5701 5701 5701 5701 5701 5702 5703 5704 5705 5706 5706 5705 5705 5706 5707 5706 5705 5704 5703
5699 5700 5699 5697 5695 5693 5693 5692 5693 5695 5695 5696 5695 5695 5696 5698 5698 5699 5699 5698 5698 5698 5699 5699 5699 5699 5699 5699 5699 5700 5700 5701 5702 5704 5704 5704 5704 5703 5704 5706 5706 5705 5704
5693 5694 5693 5694 5692 5691 5688 5689 5691 5691 5693 5695 5694 5695 5695 5696 5697 5697 5697 5698 5697 5697 5697 5697 5697 5697 5697 5697 5698 5698 5698 5698 5698 5700 5700 5702 5701 5701 5703 5703 5703 5704 5703
5689 5689 5688 5689 5689 5690 5688 5686 5688 5688 5690 5692 5692 5692 5694 5694 5695 5695 5696 5696 5696 5696 5696 5696 5696 5696 5696 5696 5697 5697 5697 5696 5697 5697 5698 5698 5697 5698 5699 5700 5699 5699 5699
5688 5685 5684 5684 5685 5685 5686 5684 5685 5686 5687 5689 5690 5689 5692 5692 5693 5693 5692 5693 5694 5694 5695 5695 5695 5695 5696 5696 5696 5695 5695 5695 5695 5694 5693 5693 5693 5695 5695 5696 5696 5697 5697
5683 5681 5679 5680 5681 5679 5681 5682 5680 5682 5683 5684 5686 5687 5689 5688 5690 5690 5689 5690 5691 5692 5693 5693 5694 5694 5694 5694 5694 5693 5693 5691 5692 5689 5687 5687 5688 5690 5690 5691 5691 5691 5691
5672 5674 5673 5676 5676 5675 5676 5676 5676 5677 5680 5679 5682 5682 5683 5685 5686 5688 5687 5688 5687 5687 5690 5691 5692 5692 5690 5689 5689 5688 5686 5686 5685 5681 5672 5676 5679 5681 5681 5681 5682 5682 5682
5665 5665 5666 5668 5670 5671 5669 5670 5671 5672 5672 5675 5675 5678 5678 5680 5680 5680 5678 5678 5680 5680 5682 5683 5683 5683 5683 5682 5681 5679 5679 5676 5673 5668 5662 5665 5666 5668 5669 5670 5669 5669 5668
5656 5656 5656 5658 5660 5666 5665 5663 5665 5663 5665 5665 5668 5670 5672 5673 5673 5673 5673 5673 5672 5672 5674 5676 5675 5675 5674 5672 5672 5672 5669 5664 5661 5658 5654 5653 5654 5655 5656 5654 5653 5654 5653
5645 5648 5648 5648 5649 5656 5656 5656 5656 5656 5656 5656 5658 5661 5665 5666 5668 5666 5666 5666 5667 5665 5666 5668 5668 5667 5666 5665 5664 5660 5656 5654 5649 5646 5642 5641 5640 5640 5639 5638 5636 5638 5638
5637 5641 5640 5638 5640 5643 5646 5648 5647 5649 5650 5650 5649 5651 5655 5657 5658 5659 5658 5658 5656 5655 5656 5657 5657 5656 5658 5657 5654 5648 5644 5641 5637 5633 5631 5629 5626 5626 5623 5623 5619 5618 5619
5627 5629 5629 5629 5631 5631 5634 5637 5638 5638 5641 5640 5640 5643 5645 5647 5648 5649 5648 5646 5645 5647 5648 5647 5646 5648 5647 5646 5640 5637 5633 5629 5626 5623 5620 5618 5616 5614 5611 5607 5605 5605 5603
5618 5621 5620 5619 5617 5622 5621 5624 5629 5627 5630 5631 5632 5635 5636 5636 5637 5638 5638 5635 5634 5638 5637 5636 5634 5633 5634 5634 5627 5623 5621 5619 5614 5611 5607 5605 5602 5599 5599 5595 5593 5590 5588
5612 5610 5611 5606 5612 5610 5609 5612 5617 5619 5620 5622 5624 5624 5625 5625 5625 5626 5626 5624 5624 5624 5623 5622 5621 5621 5619 5620 5617 5611 5609 5604 5601 5597 5594 5591 5587 5585 5583 5582 5583 5580 5576
5605 5603 5602 5608 5603 5603 5603 5609 5608 5611 5610 5612 5611 5612 5613 5614 5613 5613 5613 5613 5611 5610 5608 5608 5610 5609 5609 5605 5607 5604 5598 5592 5588 5586 5584 5580 5578 5576 5572 5571 5570 5570 5568
5599 5597 5596 5598 5593 5594 5600 5600 5601 5601 5599 5598 5601 5601 5602 5603 5601 5604 5602 5600 5598 5597 5594 5595 5596 5598 5594 5593 5598 5598 5597 5591 5584 5578 5574 5571 5566 5565 5562 5560 5558 5557 5555
5598 5595 5592 5591 5591 5590 5595 5592 5589 5590 5588 5588 5589 5590 5592 5591 5590 5592 5590 5588 5585 5585 5581 5582 5582 5583 5584 5580 5578 5582 5588 5582 5573 5572 5566 5561 5556 5554 5552 5550 5549 5546 5543
5594 5593 5590 5587 5585 5585 5586 5587 5589 5590 5586 5578 5579 5577 5579 5580 5578 5579 5578 5575 5571 5572 5570 5570 5569 5569 5571 5571 5567 5562 5558 5555 5560 5568 5562 5552 5549 5546 5542 5540 5538 5535 5531
5588 5588 5585 5581 5580 5577 5575 5583 5585 5579 5576 5571 5569 5568 5567 5567 5567 5565 5567 5562 5559 5561 5561 5559 5558 5556 5554 5557 5556 5553 5549 5547 5542 5545 5555 5552 5546 5540 5536 5533 5528 5525 5520
5581 5580 5578 5578 5575 5571 5570 5573 5574 5572 5569 5564 5561 5559 5557 5556 5557 5556 5553 5552 5550 5550 5552 5549 5546 5544 5544 5545 5543 5539 5538 5537 5534 5533 5536 5536 5531 5532 5525 5523 5518 5513 5508